Погода Алматы

Поиск расширенной информации на нашем сайте:

Полезная информация:

Новости сайта



02.01.2020
Опубликован Долгосрочный прогноз погоды по городам России и ближнего зарубежья на январь 2020 года.
Карты: Прогноз на январь и февраль 2020 года, Сравнение прогнозируемой аномалии приземной температуры воздуха на январь 2020 года по разным моделям.




Погода Алматы - сегодня

Время (UTC), дата Ветер
(°,м/с) 
Видим.   Явления Облачность Т
(°С)
Тd
(°С)
f(%) Тe
(°С)
Pmin
(гПа)
dP
(гПа)
Po
(мм)
O2
(г/м3)
Тmin Tmax R s Состояние
почвы
15 09.08.20 150 (ЮВ) н/о    8/0 средняя, верхняя 
[Ac As|Ci fib]
+26.4 +13.7 46 +35  1002.3  1.5  683  248    +31.5       
18 09.08.20 200 (Ю) н/о  слаб. ливневой дождь{гроза}  10/8 600 м кучево-дожд., средняя 
[Cb cap|Ac trans]
+22 +12.1 53 +28  1004.2  0.4  684  253    +31.5       
21 09.08.20 080 (В) н/о  в посл. час ливневой дождь{гроза}  10/8 600 м кучево-дожд., средняя 
[Cb cap|Ac trans]
+21 +11.9 56 +27  1004.1  -0.3  684  253           
00 10.08.20 120 (ЮВ) 1{07}  20000 м  {гроза, ливн. осадки}  10/8 1000 м кучево-дожд., средняя 
[Cb cap|Ac trans]
+22.8 +11 47 +27  1004.4  0.7  684  252           
03 10.08.20 тихо ()   20000 м  {ливн. осадки}  5/4 600 м кучево-дожд., средняя, верхняя 
[Cb cap|Ac trans|Ci fib]
+26.5 +12.6 42 +34  1002.9  -0.2  684  249  +19.4         
06 10.08.20 тихо ()   20000 м  {ливн. осадки}  9/8 600 м кучево-дожд., средняя, верхняя 
[Cb cap|Ac As|Ci fib]
+30.1 +11.7 32 +36  1001.3  -0.5  684  246  +19.4       
09 10.08.20 230 (ЮЗ) 20000 м    4/4 600 м кучево-дожд., верхняя 
[Cb cap|Ci ing]
+31 +8.1 24 +32  1000  -1  683  246           
12 10.08.20 тихо ()   20000 м    3/3 1000 м 
[Cu hum]
+30.9 +8.5 25 +31    -0.4             
15 10.08.20 тихо ()   н/о    3/0 верхняя 
[Ci fib]
+26.1 +10 36 +29  1001.5  0.4  683  249    +32.4       
18 10.08.20 130 (ЮВ) н/о    9/0 средняя, верхняя 
[Ac trans|Ci ing]
+24.1 +10.1 41 +27  1002.3  0.2  683  251    +32.4       
21 10.08.20 140 (ЮВ) н/о    9/0 средняя, верхняя 
[Ac trans|Ci ing]
+21.3 +11.2 53 +26  1003.1  -0.1  683  253           
00 11.08.20 110 (В) 1{07}  20000 м    6/0 средняя, верхняя 
[Ac As|Ci fib]
+22.9 +10.3 45 +26  1002.3  -0.2  683  252           
03 11.08.20 тихо ()   20000 м    1/0 верхняя 
[Ci fib]
+27.3 +10.3 35 +31  1001.4  0.3  683  248           
06 11.08.20 300 (СЗ) 20000 м    8/5 600 м кучево-дожд., средняя, верхняя 
[Cb cap|Ac As|Ci ing]
+33.3 +6.9 19 +33  999.1  -0.4  683  244  +21         
09 11.08.20 тихо ()   20000 м  {ливн. осадки}  10/10 600 м кучево-дожд. 
[Cb cap]
+29 +9 29 +31  1001.2  0.7  683  247           
12 11.08.20 тихо ()   20000 м  {ливн. осадки}  9/6 600 м средняя, верхняя 
[Cu med, cong|Ac trans|Ci fib]
+27 +9.1 32 +29  1001.4  -0.4  683  249           
15 11.08.20 250 (З) н/о    9/6 600 м средняя 
[Cu med, cong|Ac trans]
+25.5 +9.8 37 +28  1003.1  1.2  684  250    +34  0.3     
18 11.08.20 280 (З) н/о  слаб. ливневой дождь  10/8 600 м кучево-дожд., средняя 
[Cb cap|Ac As]
+20 +13.6 67 +29  1008.2  3.2  686  255    +34  0.3     
21 11.08.20 230 (ЮЗ) н/о  {ливн. осадки}  10/8 600 м кучево-дожд., средняя 
[Cb cap|Ac As]
+19.8 +11.4 58 +26  1005.5  -2.7  684  255           
00 12.08.20 тихо () {06}  20000 м  {ливн. осадки}  4/0 средняя 
[Ac trans]
+18.8 +9.1 53 +21  1005.7  -0.2  684  256           
03 12.08.20 тихо ()   20000 м    10/0 верхняя 
[Ci ing]
+23.1 +10.8 46 +27  1004.7  0.5  684  252           
06 12.08.20 020 (С) 20000 м    4/3 600 м кучево-дожд., средняя, верхняя 
[Cb cap|Ac trans|Ci fib]
+28.1 +9.1 30 +30  1003  -0.1  684  248  +18.4       
09 12.08.20 тихо ()   20000 м    4/3 600 м кучево-дожд., верхняя 
[Cb cap|Ci ing]
+29.3 +7.9 26 +30  1001.4  -1.2  683  247           
12 12.08.20 020 (С) 10 км    10/3 1000 м кучево-дожд., средняя, верхняя 
[Cb cap|Ac trans|Ci fib]
+29.4 +10.1 30 +33  1001.4  683  247           
15 12.08.20 тихо ()   н/о    10/6 1000 м кучево-дожд., средняя, верхняя 
[Cb cap|Ac As|Ci fib]
+26.2 +11.9 41 +32  1003.8  1.4  684  249    +30.5       
Время (UTC), дата Ветер
(°,м/с) 
Видим.   Явления Облачность Т
(°С)
Тd
(°С)
f(%) Тe
(°С)
Pmin
(гПа)
dP
(гПа)
Po
(мм)
O2
(г/м3)
Тmin Tmax R s Состояние
почвы

Для получения пояснительной информации подведите курсор к названию столбца.

ПОГОДА Алматы - архив

Всё, что Вы хотите узнать о погоде Алматы - удобно и подробно!

Выберите нужную дату (начиная с 1 января 2019* года) и нажмите кнопку "Найти".
Будут отображены архивные сводки погоды по пункту Алматы, начиная с указанной даты.


Отображать данные в формате CSV (для использования в таблицах Excel)


Внимание! Наш архив погоды предназначен исключительно для личного некоммерческого использования в познавательных целях. Если Вам необходимы официальные справки о состоянии погоды (для производственных, юридических, коммерческих и т.п. целей), обращайтесь в органы Росгидромета.

*Примечание: данная дата относится к архиву по метеостанциям СССР (Россия, СНГ, Балтия).
Архив по метеостанциям Зарубежной Европы и Азии (кроме Китая) хранится 10 дней, по другим регионам земного шара (Китай, Африка, Америка, Австралия, Океания) - 1 день.

Алматы - район местоположения метеостанции


Название, широта, долгота, высота метеостанции:
Алматы (город) 43.2°ш. 76.9°д. 851 м над ур. моря [Казахстан]

Дополнительная информация

В oтличие oт бoльшинства пoгoдных сайтoв мы публикуем пoдрoбную метеoинфoрмацию в детальнoм прoфессиoнальнoм фoрмате.

Характеристики температуры и влажнoсти вoздуха измеряются на высoте 2 м в тени вдали oт зданий и деревьев.
Скoрoсть ветра измеряется на высoте 10 м (на урoвне рoста челoвека скoрoсть ветра ниже в 1.5-2 раза). Если метеoстанция нахoдится в гoрoде или в лесу, тo скoрoсть ветра занижена на 2-4 м/с пo сравнению с oткрытым местoм. Скoрoсть ветра над акватoриями крупных рек и oзёр, а также на вершинах хoлмoв на 2-5 м/с выше, чем в oбычных услoвиях.
Атмoсфернoе давление в разных тoчках местнoсти мoжет значительнo oтличаться oт давления на метеoстанции, в зависимoсти oт услoвий рельефа (при пoдъёме на 10 м давление пoнижается примернo на 1 мм рт.ст.).